| time (UTC) | temp F | wind direction | speed MPH | gust MPH | rain 1hr in | rain 24hr in | rain mn in | humidity % | barometer mb |
| 20260905181001 | 74 | 83 | 4.0 | 7.0 | 0.00 | 0.00 | 0.00 | 71 | 1010.7 |
| 20260905180459 | 74 | 42 | 3.0 | 9.0 | 0.00 | 0.00 | 0.00 | 73 | 1010.8 |
| 20260905175958 | 72 | 46 | 2.0 | 9.0 | 0.00 | 0.00 | 0.00 | 72 | 1010.9 |
| 20260905175458 | 73 | 59 | 4.0 | 9.0 | 0.00 | 0.00 | 0.00 | 73 | 1010.9 |
| 20260905174959 | 73 | 90 | 1.0 | 5.0 | 0.00 | 0.00 | 0.00 | 73 | 1010.9 |
| 20260905174502 | 73 | 71 | 3.0 | 5.0 | 0.00 | 0.00 | 0.00 | 72 | 1010.9 |
| 20260905173959 | 73 | 70 | 0.0 | 10.0 | 0.00 | 0.00 | 0.00 | 75 | 1010.8 |
| 20260905172959 | 73 | 45 | 5.0 | 8.0 | 0.00 | 0.00 | 0.00 | 73 | 1010.8 |
| 20260905172459 | 74 | 61 | 0.0 | 5.0 | 0.00 | 0.00 | 0.00 | 73 | 1010.8 |
| 20260905171459 | 73 | 62 | 0.0 | 6.0 | 0.00 | 0.00 | 0.00 | 76 | 1010.9 |
| 20260905170959 | 73 | 33 | 1.0 | 9.0 | 0.00 | 0.00 | 0.00 | 71 | 1010.8 |
| 20260905170458 | 74 | 49 | 5.0 | 9.0 | 0.00 | 0.00 | 0.00 | 69 | 1010.9 |
| 20260905170002 | 74 | 38 | 5.0 | 8.0 | 0.00 | 0.00 | 0.00 | 71 | 1010.8 |
| 20260905165459 | 73 | 85 | 5.0 | 10.0 | 0.00 | 0.00 | 0.00 | 72 | 1010.8 |
| 20260905165000 | 73 | 57 | 9.0 | 10.0 | 0.00 | 0.00 | 0.00 | 73 | 1010.8 |
| 20260905164500 | 73 | 11 | 4.0 | 10.0 | 0.00 | 0.00 | 0.00 | 72 | 1010.7 |
| 20260905163959 | 72 | 83 | 7.0 | 10.0 | 0.00 | 0.00 | 0.00 | 73 | 1010.8 |
| 20260905163459 | 73 | 42 | 4.0 | 9.0 | 0.00 | 0.00 | 0.00 | 70 | 1010.9 |
| 20260905162958 | 74 | 69 | 6.0 | 9.0 | 0.00 | 0.00 | 0.00 | 68 | 1010.7 |
| 20260905162459 | 75 | 76 | 4.0 | 6.0 | 0.00 | 0.00 | 0.00 | 67 | 1010.6 |
| 20260905161959 | 74 | 51 | 1.0 | 9.0 | 0.00 | 0.00 | 0.00 | 72 | 1010.7 |
| 20260905160959 | 73 | 82 | 3.0 | 8.0 | 0.00 | 0.00 | 0.00 | 68 | 1010.8 |
| 20260905160001 | 75 | 101 | 6.0 | 9.0 | 0.00 | 0.00 | 0.00 | 66 | 1010.7 |
| 20260905155500 | 74 | 59 | 2.0 | 6.0 | 0.00 | 0.00 | 0.00 | 69 | 1010.7 |
| 20260905154959 | 74 | 109 | 1.0 | 6.0 | 0.00 | 0.00 | 0.00 | 69 | 1010.8 |
| 20260905154459 | 73 | 44 | 4.0 | 10.0 | 0.00 | 0.00 | 0.00 | 69 | 1010.8 |
| 20260905153959 | 73 | 64 | 4.0 | 10.0 | 0.00 | 0.00 | 0.00 | 70 | 1010.9 |
| 20260905153003 | 73 | 74 | 2.0 | 5.0 | 0.00 | 0.00 | 0.00 | 71 | 1010.9 |
| 20260905152458 | 73 | 27 | 1.0 | 6.0 | 0.00 | 0.00 | 0.00 | 74 | 1010.9 |
| 20260905151500 | 72 | 81 | 3.0 | 13.0 | 0.00 | 0.00 | 0.00 | 71 | 1010.9 |
| 20260905151000 | 71 | 73 | 3.0 | 10.0 | 0.00 | 0.00 | 0.00 | 73 | 1010.9 |
| 20260905150458 | 71 | 44 | 3.0 | 9.0 | 0.00 | 0.00 | 0.00 | 74 | 1011.0 |
| 20260905150003 | 71 | 360 | 1.0 | 4.0 | 0.00 | 0.00 | 0.00 | 79 | 1011.0 |
| 20260905145458 | 71 | 302 | 1.0 | 4.0 | 0.00 | 0.00 | 0.00 | 79 | 1011.0 |
| 20260905144957 | 71 | 26 | 0.0 | 6.0 | 0.00 | 0.00 | 0.00 | 80 | 1010.9 |
| 20260905144458 | 70 | 26 | 2.0 | 6.0 | 0.00 | 0.00 | 0.00 | 79 | 1011.0 |
| 20260905143957 | 70 | 87 | 1.0 | 8.0 | 0.00 | 0.00 | 0.00 | 79 | 1010.8 |
| 20260905143458 | 70 | 227 | 1.0 | 8.0 | 0.00 | 0.00 | 0.00 | 81 | 1010.7 |
| 20260905142958 | 69 | 266 | 0.0 | 5.0 | 0.00 | 0.00 | 0.00 | 81 | 1010.6 |
| 20260905142458 | 69 | 36 | 3.0 | 6.0 | 0.00 | 0.00 | 0.00 | 82 | 1010.7 |
| 20260905141958 | 68 | 293 | 3.0 | 6.0 | 0.00 | 0.00 | 0.00 | 83 | 1010.6 |
| 20260905140958 | 67 | 276 | 0.0 | 3.0 | 0.00 | 0.00 | 0.00 | 85 | 1010.8 |
| 20260905140458 | 67 | 269 | 0.0 | 5.0 | 0.00 | 0.00 | 0.00 | 85 | 1010.8 |
| 20260905140002 | 67 | 273 | 1.0 | 5.0 | 0.00 | 0.00 | 0.00 | 83 | 1010.9 |
| 20260905135459 | 67 | 334 | 0.0 | 4.0 | 0.00 | 0.00 | 0.00 | 85 | 1010.9 |
| 20260905134959 | 67 | 290 | 1.0 | 3.0 | 0.00 | 0.00 | 0.00 | 85 | 1011.0 |
| 20260905134458 | 67 | 282 | 0.0 | 3.0 | 0.00 | 0.00 | 0.00 | 85 | 1011.1 |
| 20260905133458 | 67 | 282 | 1.0 | 5.0 | 0.00 | 0.00 | 0.00 | 84 | 1011.0 |
| 20260905132959 | 67 | 280 | 1.0 | 5.0 | 0.00 | 0.00 | 0.00 | 82 | 1011.1 |
| 20260905132459 | 67 | 57 | 0.0 | 5.0 | 0.00 | 0.00 | 0.00 | 85 | 1011.1 |
| 20260905131459 | 67 | 294 | 1.0 | 8.0 | 0.00 | 0.00 | 0.00 | 83 | 1011.1 |
| 20260905130459 | 67 | 48 | 1.0 | 7.0 | 0.00 | 0.00 | 0.00 | 84 | 1011.1 |
| 20260905130000 | 67 | 79 | 2.0 | 4.0 | 0.00 | 0.00 | 0.00 | 84 | 1011.1 |
| 20260905124958 | 66 | 55 | 2.0 | 7.0 | 0.00 | 0.00 | 0.00 | 85 | 1011.2 |
| 20260905124459 | 66 | 65 | 0.0 | 7.0 | 0.00 | 0.00 | 0.00 | 85 | 1011.3 |
| 20260905123459 | 65 | 284 | 0.0 | 4.0 | 0.00 | 0.00 | 0.00 | 88 | 1011.4 |
| 20260905123000 | 64 | 77 | 0.0 | 4.0 | 0.00 | 0.00 | 0.00 | 88 | 1011.4 |
| 20260905122458 | 64 | 309 | 0.0 | 2.0 | 0.00 | 0.00 | 0.00 | 88 | 1011.3 |
| 20260905121958 | 63 | 131 | 1.0 | 2.0 | 0.00 | 0.00 | 0.00 | 89 | 1011.3 |
| 20260905121458 | 63 | 304 | 0.0 | 0.0 | 0.00 | 0.00 | 0.00 | 90 | 1011.3 |
| 20260905120459 | 62 | 339 | 0.0 | 0.0 | 0.00 | 0.00 | 0.00 | 91 | 1011.2 |
| 20260905120000 | 62 | 331 | 0.0 | 0.0 | 0.00 | 0.00 | 0.00 | 91 | 1011.1 |
| 20260905115458 | 62 | 331 | 0.0 | 0.0 | 0.00 | 0.00 | 0.00 | 91 | 1011.2 |
| 20260905114959 | 62 | 331 | 0.0 | 0.0 | 0.00 | 0.00 | 0.00 | 91 | 1011.1 |
| 20260905114459 | 62 | 49 | 0.0 | 0.0 | 0.00 | 0.00 | 0.00 | 90 | 1011.0 |
| 20260905113958 | 62 | 59 | 0.0 | 0.0 | 0.00 | 0.00 | 0.00 | 89 | 1010.9 |
| 20260905113459 | 62 | 40 | 0.0 | 0.0 | 0.00 | 0.00 | 0.00 | 88 | 1010.9 |
| 20260905112959 | 62 | 40 | 0.0 | 1.0 | 0.00 | 0.00 | 0.00 | 88 | 1010.9 |
| 20260905112458 | 63 | 38 | 0.0 | 3.0 | 0.00 | 0.00 | 0.00 | 88 | 1010.9 |
| 20260905111959 | 63 | 35 | 2.0 | 4.0 | 0.00 | 0.00 | 0.00 | 88 | 1010.9 |
| 20260905110959 | 62 | 57 | 2.0 | 5.0 | 0.00 | 0.00 | 0.00 | 89 | 1010.6 |
| 20260905110459 | 62 | 76 | 2.0 | 4.0 | 0.00 | 0.00 | 0.00 | 90 | 1010.6 |
| 20260905110000 | 61 | 58 | 3.0 | 4.0 | 0.00 | 0.00 | 0.00 | 90 | 1010.5 |
| 20260905104958 | 61 | 79 | 2.0 | 4.0 | 0.00 | 0.00 | 0.00 | 92 | 1010.5 |
| 20260905104457 | 60 | 46 | 2.0 | 4.0 | 0.00 | 0.00 | 0.00 | 92 | 1010.4 |
| 20260905103958 | 60 | 47 | 1.0 | 3.0 | 0.00 | 0.00 | 0.00 | 92 | 1010.4 |
| 20260905103500 | 60 | 48 | 1.0 | 3.0 | 0.00 | 0.00 | 0.00 | 92 | 1010.4 |
| 20260905102958 | 59 | 20 | 1.0 | 2.0 | 0.00 | 0.00 | 0.00 | 92 | 1010.4 |
| 20260905101958 | 60 | 218 | 0.0 | 0.0 | 0.00 | 0.00 | 0.00 | 92 | 1010.1 |
| 20260905101458 | 60 | 218 | 0.0 | 0.0 | 0.00 | 0.00 | 0.00 | 92 | 1010.2 |
| 20260905100957 | 60 | 218 | 0.0 | 0.0 | 0.00 | 0.00 | 0.00 | 92 | 1010.1 |
| 20260905100457 | 60 | 218 | 0.0 | 0.0 | 0.00 | 0.00 | 0.00 | 92 | 1010.1 |
| 20260905095958 | 60 | 218 | 0.0 | 0.0 | 0.00 | 0.00 | 0.00 | 92 | 1010.1 |
| 20260905095457 | 60 | 218 | 0.0 | 0.0 | 0.00 | 0.00 | 0.00 | 92 | 1010.1 |
| 20260905094958 | 60 | 218 | 0.0 | 0.0 | 0.00 | 0.00 | 0.00 | 92 | 1010.1 |
| 20260905094458 | 60 | 218 | 0.0 | 0.0 | 0.00 | 0.00 | 0.00 | 92 | 1010.0 |
| 20260905093958 | 60 | 218 | 0.0 | 0.0 | 0.00 | 0.00 | 0.00 | 92 | 1010.0 |
| 20260905092958 | 60 | 218 | 0.0 | 0.0 | 0.00 | 0.00 | 0.00 | 92 | 1009.9 |
| 20260905092458 | 60 | 216 | 0.0 | 0.0 | 0.00 | 0.00 | 0.00 | 92 | 1009.9 |
| 20260905091957 | 60 | 216 | 0.0 | 0.0 | 0.00 | 0.00 | 0.00 | 92 | 1009.9 |
| 20260905091458 | 60 | 216 | 0.0 | 0.0 | 0.00 | 0.00 | 0.00 | 92 | 1009.9 |
| 20260905090458 | 61 | 219 | 0.0 | 0.0 | 0.00 | 0.00 | 0.00 | 92 | 1009.9 |
| 20260905090000 | 61 | 219 | 0.0 | 0.0 | 0.00 | 0.00 | 0.00 | 91 | 1009.9 |
| 20260905085459 | 61 | 219 | 0.0 | 0.0 | 0.00 | 0.29 | 0.00 | 91 | 1010.0 |
| 20260905084958 | 61 | 207 | 0.0 | 0.0 | 0.00 | 0.29 | 0.00 | 91 | 1010.1 |
| 20260905084459 | 61 | 207 | 0.0 | 0.0 | 0.00 | 0.29 | 0.00 | 91 | 1010.0 |
| 20260905083958 | 61 | 207 | 0.0 | 2.0 | 0.00 | 0.29 | 0.00 | 91 | 1010.0 |
| 20260905083458 | 62 | 207 | 0.0 | 2.0 | 0.00 | 0.29 | 0.00 | 91 | 1010.0 |
| 20260905082958 | 62 | 207 | 0.0 | 2.0 | 0.00 | 0.29 | 0.00 | 90 | 1010.1 |
| 20260905081959 | 62 | 186 | 0.0 | 3.0 | 0.00 | 0.29 | 0.00 | 89 | 1010.1 |
| 20260905081458 | 62 | 242 | 1.0 | 2.0 | 0.00 | 0.29 | 0.00 | 89 | 1010.1 |
| 20260905080959 | 62 | 242 | 1.0 | 3.0 | 0.00 | 0.29 | 0.00 | 89 | 1010.0 |
| 20260905080459 | 62 | 278 | 0.0 | 3.0 | 0.00 | 0.29 | 0.00 | 88 | 1010.0 |
| 20260905075958 | 62 | 78 | 0.0 | 5.0 | 0.00 | 0.29 | 0.00 | 88 | 1010.0 |
| 20260905075457 | 62 | 69 | 2.0 | 5.0 | 0.00 | 0.29 | 0.00 | 87 | 1010.0 |
| 20260905073458 | 63 | 80 | 0.0 | 2.0 | 0.00 | 0.29 | 0.00 | 88 | 1009.9 |
| 20260905072957 | 63 | 80 | 1.0 | 4.0 | 0.00 | 0.29 | 0.00 | 87 | 1009.9 |
| 20260905072458 | 63 | 80 | 3.0 | 5.0 | 0.00 | 0.29 | 0.00 | 87 | 1009.9 |
| 20260905071957 | 63 | 286 | 0.0 | 6.0 | 0.00 | 0.29 | 0.00 | 88 | 1009.8 |
| 20260905071457 | 62 | 123 | 2.0 | 6.0 | 0.00 | 0.29 | 0.00 | 88 | 1009.9 |
| 20260905070458 | 62 | 61 | 1.0 | 6.0 | 0.00 | 0.29 | 0.00 | 89 | 1009.9 |
| 20260905065958 | 62 | 46 | 5.0 | 6.0 | 0.00 | 0.29 | 0.00 | 90 | 1009.9 |
| 20260905065457 | 62 | 282 | 0.0 | 3.0 | 0.00 | 0.29 | 0.00 | 90 | 1010.0 |
| 20260905064957 | 62 | 282 | 1.0 | 3.0 | 0.00 | 0.29 | 0.00 | 90 | 1010.0 |
| 20260905064457 | 62 | 275 | 0.0 | 2.0 | 0.00 | 0.29 | 0.00 | 90 | 1010.1 |
| 20260905063958 | 62 | 275 | 0.0 | 1.0 | 0.00 | 0.29 | 0.00 | 89 | 1010.2 |
| 20260905063458 | 62 | 275 | 0.0 | 1.0 | 0.00 | 0.29 | 0.00 | 90 | 1010.3 |
| 20260905062957 | 62 | 275 | 0.0 | 1.0 | 0.00 | 0.29 | 0.00 | 90 | 1010.2 |
| 20260905061957 | 62 | 275 | 1.0 | 2.0 | 0.00 | 0.29 | 0.00 | 90 | 1010.4 |
| 20260905061457 | 62 | 275 | 1.0 | 2.0 | 0.00 | 0.29 | 0.00 | 90 | 1010.4 |
| 20260905060958 | 62 | 275 | 1.0 | 2.0 | 0.00 | 0.29 | 0.00 | 90 | 1010.4 |
| 20260905060458 | 63 | 275 | 1.0 | 3.0 | 0.00 | 0.29 | 0.00 | 90 | 1010.5 |
| 20260905060000 | 63 | 275 | 1.0 | 3.0 | 0.00 | 0.29 | 0.00 | 90 | 1010.5 |
| 20260905055459 | 63 | 275 | 1.0 | 3.0 | 0.00 | 0.29 | 0.00 | 90 | 1010.6 |
| 20260905054959 | 63 | 275 | 2.0 | 3.0 | 0.00 | 0.29 | 0.00 | 90 | 1010.6 |
| 20260905054458 | 63 | 275 | 1.0 | 3.0 | 0.00 | 0.29 | 0.00 | 90 | 1010.6 |
| 20260905053958 | 63 | 275 | 2.0 | 3.0 | 0.00 | 0.29 | 0.00 | 90 | 1010.6 |
| 20260905053459 | 63 | 275 | 1.0 | 2.0 | 0.00 | 0.29 | 0.00 | 90 | 1010.6 |
| 20260905052959 | 63 | 275 | 1.0 | 3.0 | 0.00 | 0.29 | 0.00 | 90 | 1010.7 |
| 20260905051959 | 63 | 275 | 2.0 | 3.0 | 0.00 | 0.29 | 0.00 | 90 | 1010.9 |
| 20260905051459 | 63 | 275 | 2.0 | 3.0 | 0.00 | 0.29 | 0.00 | 90 | 1010.9 |
| 20260905050959 | 63 | 275 | 2.0 | 3.0 | 0.00 | 0.29 | 0.00 | 90 | 1011.0 |
| 20260905050000 | 63 | 280 | 2.0 | 3.0 | 0.00 | 0.29 | 0.00 | 90 | 1011.1 |
| 20260905045500 | 63 | 288 | 1.0 | 3.0 | 0.00 | 0.29 | 0.00 | 90 | 1011.1 |
| 20260905044959 | 63 | 290 | 1.0 | 3.0 | 0.00 | 0.29 | 0.00 | 90 | 1011.1 |
| 20260905044502 | 63 | 292 | 1.0 | 3.0 | 0.00 | 0.29 | 0.00 | 90 | 1011.1 |
| 20260905044000 | 63 | 292 | 1.0 | 2.0 | 0.00 | 0.29 | 0.00 | 90 | 1011.1 |
| 20260905043459 | 64 | 292 | 0.0 | 2.0 | 0.00 | 0.29 | 0.00 | 90 | 1011.2 |
| 20260905042959 | 64 | 290 | 1.0 | 2.0 | 0.00 | 0.29 | 0.00 | 90 | 1011.1 |
| 20260905042459 | 64 | 290 | 2.0 | 3.0 | 0.00 | 0.29 | 0.00 | 90 | 1011.2 |
| 20260905041959 | 64 | 290 | 2.0 | 3.0 | 0.00 | 0.29 | 0.00 | 90 | 1011.1 |
| 20260905041459 | 64 | 292 | 0.0 | 0.0 | 0.00 | 0.29 | 0.00 | 91 | 1011.2 |
| 20260905040959 | 64 | 292 | 0.0 | 2.0 | 0.00 | 0.29 | 0.00 | 90 | 1011.2 |
| 20260905040500 | 64 | 292 | 0.0 | 2.0 | 0.00 | 0.29 | 0.00 | 90 | 1011.3 |
| 20260905035500 | 64 | 292 | 1.0 | 3.0 | 0.00 | 0.29 | 0.29 | 90 | 1011.3 |
| 20260905035001 | 64 | 292 | 1.0 | 2.0 | 0.00 | 0.29 | 0.29 | 90 | 1011.2 |
| 20260905034501 | 64 | 292 | 1.0 | 2.0 | 0.00 | 0.29 | 0.29 | 90 | 1011.1 |
| 20260905033000 | 65 | 292 | 1.0 | 2.0 | 0.00 | 0.29 | 0.29 | 89 | 1011.1 |
| 20260905032500 | 65 | 292 | 1.0 | 2.0 | 0.00 | 0.29 | 0.29 | 89 | 1011.2 |
| 20260905032002 | 65 | 292 | 0.0 | 0.0 | 0.00 | 0.29 | 0.29 | 89 | 1011.1 |
| 20260905031500 | 65 | 292 | 0.0 | 0.0 | 0.00 | 0.29 | 0.29 | 89 | 1011.2 |
| 20260905031001 | 65 | 292 | 0.0 | 0.0 | 0.00 | 0.29 | 0.29 | 88 | 1011.1 |
| 20260905030501 | 65 | 292 | 0.0 | 0.0 | 0.00 | 0.29 | 0.29 | 88 | 1011.1 |
| 20260905030002 | 65 | 292 | 0.0 | 0.0 | 0.00 | 0.29 | 0.29 | 88 | 1011.1 |
| 20260905024959 | 65 | 292 | 0.0 | 0.0 | 0.00 | 0.29 | 0.29 | 89 | 1011.0 |
| 20260905024500 | 65 | 292 | 0.0 | 0.0 | 0.00 | 0.29 | 0.29 | 88 | 1011.0 |
| 20260905023959 | 65 | 292 | 0.0 | 0.0 | 0.00 | 0.29 | 0.29 | 88 | 1011.0 |
| 20260905023459 | 65 | 292 | 0.0 | 0.0 | 0.00 | 0.29 | 0.29 | 88 | 1011.0 |
| 20260905022959 | 66 | 292 | 0.0 | 0.0 | 0.00 | 0.29 | 0.29 | 88 | 1011.2 |
| 20260905022500 | 66 | 292 | 0.0 | 0.0 | 0.00 | 0.29 | 0.29 | 88 | 1011.2 |
| 20260905021959 | 66 | 292 | 0.0 | 0.0 | 0.00 | 0.29 | 0.29 | 87 | 1011.2 |
| 20260905021500 | 66 | 292 | 0.0 | 0.0 | 0.00 | 0.29 | 0.29 | 87 | 1011.1 |
| 20260905020500 | 66 | 292 | 0.0 | 0.0 | 0.00 | 0.29 | 0.29 | 86 | 1011.2 |
| 20260905020003 | 67 | 292 | 0.0 | 0.0 | 0.00 | 0.29 | 0.29 | 86 | 1011.2 |
| 20260905015001 | 67 | 292 | 0.0 | 0.0 | 0.00 | 0.29 | 0.29 | 84 | 1011.3 |
| 20260905014500 | 67 | 292 | 0.0 | 0.0 | 0.00 | 0.29 | 0.29 | 83 | 1011.3 |
| 20260905013500 | 67 | 292 | 0.0 | 0.0 | 0.00 | 0.29 | 0.29 | 83 | 1011.3 |
| 20260905013000 | 67 | 292 | 0.0 | 0.0 | 0.00 | 0.29 | 0.29 | 84 | 1011.2 |
| 20260905012459 | 67 | 292 | 0.0 | 0.0 | 0.00 | 0.29 | 0.29 | 84 | 1011.3 |
| 20260905012000 | 68 | 292 | 0.0 | 0.0 | 0.00 | 0.29 | 0.29 | 84 | 1011.2 |
| 20260905011501 | 68 | 292 | 0.0 | 0.0 | 0.00 | 0.29 | 0.29 | 84 | 1011.3 |
| 20260905011000 | 68 | 292 | 0.0 | 0.0 | 0.00 | 0.29 | 0.29 | 83 | 1011.2 |
| 20260905005500 | 68 | 292 | 0.0 | 0.0 | 0.00 | 0.29 | 0.29 | 82 | 1011.4 |
| 20260905004959 | 68 | 292 | 0.0 | 0.0 | 0.00 | 0.29 | 0.29 | 82 | 1011.4 |
| 20260905004459 | 68 | 292 | 0.0 | 0.0 | 0.00 | 0.29 | 0.29 | 82 | 1011.4 |
| 20260905003459 | 69 | 292 | 0.0 | 0.0 | 0.00 | 0.29 | 0.29 | 83 | 1011.4 |
| 20260905003000 | 69 | 292 | 0.0 | 0.0 | 0.00 | 0.29 | 0.29 | 81 | 1011.3 |
| 20260905001459 | 69 | 292 | 0.0 | 0.0 | 0.00 | 0.29 | 0.29 | 81 | 1011.3 |
| 20260905001000 | 69 | 292 | 0.0 | 0.0 | 0.00 | 0.29 | 0.29 | 81 | 1011.3 |
| 20260905000459 | 69 | 292 | 0.0 | 0.0 | 0.00 | 0.29 | 0.29 | 81 | 1011.2 |
| 20260904235459 | 69 | 292 | 0.0 | 0.0 | 0.00 | 0.29 | 0.29 | 81 | 1011.1 |
| 20260904235000 | 69 | 292 | 0.0 | 0.0 | 0.00 | 0.29 | 0.29 | 81 | 1011.0 |
| 20260904234459 | 69 | 292 | 0.0 | 0.0 | 0.00 | 0.29 | 0.29 | 81 | 1011.0 |
| 20260904233459 | 69 | 292 | 0.0 | 0.0 | 0.00 | 0.29 | 0.29 | 83 | 1010.9 |
| 20260904232959 | 69 | 292 | 0.0 | 0.0 | 0.00 | 0.29 | 0.29 | 82 | 1011.0 |
| 20260904232459 | 69 | 292 | 0.0 | 0.0 | 0.00 | 0.29 | 0.29 | 83 | 1011.0 |
| 20260904231459 | 69 | 292 | 0.0 | 0.0 | 0.00 | 0.29 | 0.29 | 82 | 1011.0 |
| 20260904230959 | 69 | 292 | 0.0 | 0.0 | 0.00 | 0.29 | 0.29 | 81 | 1010.9 |
| 20260904230459 | 70 | 292 | 0.0 | 0.0 | 0.00 | 0.29 | 0.29 | 82 | 1010.9 |
| 20260904225959 | 70 | 292 | 0.0 | 0.0 | 0.00 | 0.29 | 0.29 | 81 | 1010.9 |
| 20260904225500 | 70 | 292 | 0.0 | 0.0 | 0.00 | 0.29 | 0.29 | 82 | 1011.0 |
| 20260904224959 | 70 | 292 | 0.0 | 0.0 | 0.00 | 0.29 | 0.29 | 82 | 1011.0 |
| 20260904224500 | 71 | 292 | 0.0 | 0.0 | 0.00 | 0.29 | 0.29 | 81 | 1011.0 |
| 20260904224001 | 71 | 292 | 0.0 | 0.0 | 0.00 | 0.29 | 0.29 | 81 | 1011.0 |
| 20260904223000 | 71 | 292 | 0.0 | 1.0 | 0.00 | 0.29 | 0.29 | 80 | 1011.0 |
| 20260904222459 | 72 | 292 | 0.0 | 2.0 | 0.00 | 0.29 | 0.29 | 79 | 1011.0 |
| 20260904222001 | 72 | 292 | 0.0 | 2.0 | 0.00 | 0.29 | 0.29 | 79 | 1011.0 |
| 20260904221459 | 72 | 292 | 0.0 | 1.0 | 0.00 | 0.29 | 0.29 | 80 | 1010.9 |
| 20260904220959 | 72 | 291 | 0.0 | 2.0 | 0.00 | 0.29 | 0.29 | 80 | 1010.9 |
| 20260904220459 | 72 | 291 | 1.0 | 2.0 | 0.00 | 0.29 | 0.29 | 81 | 1010.9 |
| 20260904220003 | 73 | 291 | 1.0 | 2.0 | 0.00 | 0.29 | 0.29 | 80 | 1010.9 |
| 20260904214958 | 73 | 295 | 0.0 | 2.0 | 0.00 | 0.29 | 0.29 | 78 | 1010.9 |
| 20260904214459 | 73 | 296 | 0.0 | 3.0 | 0.00 | 0.29 | 0.29 | 79 | 1010.9 |
| 20260904213959 | 73 | 296 | 1.0 | 3.0 | 0.00 | 0.29 | 0.29 | 78 | 1010.9 |
| 20260904213459 | 73 | 297 | 1.0 | 3.0 | 0.00 | 0.29 | 0.29 | 78 | 1010.9 |
| 20260904212958 | 74 | 297 | 0.0 | 3.0 | 0.00 | 0.29 | 0.29 | 78 | 1010.9 |
| 20260904211459 | 74 | 123 | 0.0 | 3.0 | 0.00 | 0.29 | 0.29 | 76 | 1010.9 |
| 20260904211003 | 74 | 284 | 0.0 | 2.0 | 0.00 | 0.29 | 0.29 | 76 | 1010.9 |
| 20260904210459 | 74 | 284 | 1.0 | 3.0 | 0.00 | 0.29 | 0.29 | 76 | 1010.9 |
| 20260904210002 | 74 | 282 | 2.0 | 3.0 | 0.00 | 0.29 | 0.29 | 76 | 1010.9 |
| 20260904205458 | 74 | 282 | 1.0 | 3.0 | 0.00 | 0.29 | 0.29 | 76 | 1011.0 |
| 20260904204959 | 75 | 281 | 1.0 | 5.0 | 0.00 | 0.29 | 0.29 | 75 | 1011.0 |
| 20260904204459 | 75 | 193 | 2.0 | 5.0 | 0.00 | 0.29 | 0.29 | 73 | 1011.1 |
| 20260904203959 | 75 | 268 | 4.0 | 6.0 | 0.00 | 0.29 | 0.29 | 75 | 1011.0 |
| 20260904203459 | 75 | 277 | 3.0 | 6.0 | 0.00 | 0.29 | 0.29 | 74 | 1011.0 |
| 20260904202959 | 76 | 168 | 2.0 | 3.0 | 0.00 | 0.29 | 0.29 | 73 | 1011.0 |
| 20260904202459 | 76 | 128 | 0.0 | 3.0 | 0.00 | 0.29 | 0.29 | 72 | 1010.9 |
| 20260904200959 | 75 | 301 | 0.0 | 8.0 | 0.00 | 0.29 | 0.29 | 72 | 1011.0 |
| 20260904195459 | 75 | 46 | 3.0 | 8.0 | 0.00 | 0.29 | 0.29 | 73 | 1011.0 |
| 20260904194959 | 76 | 90 | 0.0 | 4.0 | 0.00 | 0.29 | 0.29 | 71 | 1011.1 |
| 20260904193459 | 77 | 42 | 5.0 | 9.0 | 0.00 | 0.29 | 0.29 | 68 | 1011.1 |
| 20260904192959 | 76 | 360 | 1.0 | 9.0 | 0.00 | 0.29 | 0.29 | 72 | 1011.1 |
| 20260904192459 | 76 | 95 | 0.0 | 4.0 | 0.00 | 0.29 | 0.29 | 74 | 1011.1 |
| 20260904191959 | 76 | 249 | 0.0 | 6.0 | 0.00 | 0.29 | 0.29 | 74 | 1011.2 |
| 20260904191459 | 76 | 291 | 1.0 | 6.0 | 0.00 | 0.29 | 0.29 | 73 | 1011.1 |
| 20260904190959 | 76 | 265 | 2.0 | 6.0 | 0.00 | 0.29 | 0.29 | 75 | 1011.2 |
| 20260904190459 | 76 | 5 | 5.0 | 6.0 | 0.00 | 0.29 | 0.29 | 71 | 1011.2 |
| 20260904190001 | 76 | 232 | 0.0 | 5.0 | 0.00 | 0.29 | 0.29 | 73 | 1011.3 |
| 20260904185500 | 76 | 257 | 0.0 | 7.0 | 0.00 | 0.29 | 0.29 | 73 | 1011.3 |
| 20260904184959 | 76 | 101 | 1.0 | 4.0 | 0.00 | 0.29 | 0.29 | 74 | 1011.4 |
| 20260904184459 | 76 | 289 | 0.0 | 4.0 | 0.00 | 0.29 | 0.29 | 71 | 1011.4 |
| 20260904183459 | 78 | 73 | 2.0 | 4.0 | 0.00 | 0.29 | 0.29 | 67 | 1011.4 |
| 20260904182459 | 79 | 257 | 1.0 | 6.0 | 0.00 | 0.29 | 0.29 | 65 | 1011.4 |
| 20260904181959 | 79 | 241 | 0.0 | 5.0 | 0.00 | 0.29 | 0.29 | 70 | 1011.4 |
| 20260904181500 | 78 | 55 | 4.0 | 8.0 | 0.00 | 0.29 | 0.29 | 71 | 1011.4 |